Location: Home
(42.5358°N, 72.7383°W)
Time: 03:30:14
(UTC-04:00)

IRIDIUM 152 - Pass Details

Date: 06 July 2022
Orbit: 776 x 779 km, 86.4° (Epoch: 16 August)

Event Time Altitude Azimuth Distance (km) Brightness Sun altitude
Exits shadow 04:08:36 - 184° (S) 2,646 ? -11.1°
Reaches altitude 10° 04:09:25 10° 184° (S) 2,324 ? -11.0°
Maximum altitude 04:14:38 83° 272° (W) 791 ? -10.3°
Drops below altitude 10° 04:19:53 10° 1° (N) 2,342 ? -9.6°
Sets 04:22:15 0° 3° (N) 3,274 ? -9.3°
